#timestamp,LO_Frequency,Hit,StdDev 
1532473215.5,286047002.8,N
1532473235.4,286047000.1,N
1532473255.2,286047002.4,N
1532473275.1,286047002.4,N
1532473276.0,286047002.4,N
1532473295.8,286047001.7,N
1532473315.6,286047002.5,N
1532473335.5,286047001.5,N
1532473355.3,286047001.7,N
1532473375.2,286047001.6,N
1532473395.9,286047002.7,N
1532473415.7,286047002.1,N
1532473435.6,286047002.3,N
1532473455.4,286047002.5,N
1532473475.2,286047002.2,N
1532473495.1,286047001.9,N
1532473496.0,286047001.9,N
1532473515.8,286047004.4,Y
1532473535.7,286047000.3,P
1532473555.5,286047000.9,N
1532473575.3,286047000.8,N
1532473595.2,286046998.9,N
1532473615.0,286046998.5,N
1532473615.9,286046998.5,N
1532473635.8,286046998.5,N
1532473655.6,286046998.9,N
1532473675.4,286046998.2,N
1532473695.3,286047000.3,N
1532473715.1,286046999.9,N
1532473716.0,286046999.9,N
1532473735.8,286047000.9,N
1532473755.7,286046999.9,N
1532473775.5,286047000.3,N
1532473795.4,286047000.5,N
1532473815.2,286046999.9,N
1532473835.0,286047000.8,N
1532473835.9,286047000.8,N
1532473855.8,286046998.6,N
1532473875.6,286047000.2,N
1532473895.4,286047001.0,N
1532473915.3,286047001.1,N
1532473935.1,286047000.3,N
1532473955.9,286047001.0,N
1532473975.7,286047001.1,N
1532473995.5,286046998.7,N
1532474015.4,286046998.9,N
1532474035.2,286046998.1,N
1532474055.0,286047001.2,N
1532474055.9,286047001.2,N
1532474075.8,286047000.3,N
1532474095.6,286046999.9,N
1532474115.5,286047000.7,N
1532474135.3,286047001.1,N
1532474155.1,286047001.1,N
1532474175.9,286046999.3,N
1532474195.7,286046998.9,N
1532474215.5,286046996.6,Y
1532474235.4,286046999.1,P
1532474255.2,286046999.3,N
1532474275.1,286046998.8,N
1532474276.0,286046998.8,N
1532474295.8,286046998.9,N
1532474315.6,286046998.2,Y
1532474335.5,286047000.5,P
1532474355.3,286047000.6,N
1532474375.2,286046998.5,N
1532474395.9,286047000.7,N
1532474415.7,286047001.1,N
1532474435.6,286047001.0,N
1532474455.4,286046998.4,N
1532474475.2,286046998.4,N
1532474495.1,286046998.5,N
1532474496.0,286046998.5,N
1532474515.8,286046998.1,N
1532474535.7,286047001.2,N
1532474555.5,286047000.8,N
1532474575.3,286046999.8,N
1532474595.2,286047000.0,N
1532474615.0,286047000.6,N
1532474615.9,286047000.6,N
1532474635.7,286047000.3,N
1532474655.6,286046999.8,N
1532474675.4,286047000.5,N
1532474695.3,286047000.9,N
1532474715.1,286047001.0,N
1532474716.0,286047001.0,N
1532474735.8,286047000.5,N
1532474755.7,286047001.0,N
1532474775.5,286047000.0,N
1532474795.3,286047000.1,N
1532474815.2,286046998.5,N
1532474835.0,286047000.0,N
1532474835.9,286047000.0,N
1532474855.8,286047000.4,N
1532474875.6,286047001.2,N
1532474895.4,286047000.8,N
1532474915.3,286047000.2,N
1532474935.1,286046999.7,N
1532474955.8,286047002.8,N
1532474975.7,286046999.7,N
1532474995.5,286047000.4,N
1532475015.4,286047000.5,N
1532475035.2,286047000.2,N
1532475055.0,286047001.0,N
1532475055.9,286047001.0,N
1532475075.8,286047000.0,N
1532475095.6,286047000.3,N
1532475115.5,286047000.5,N
1532475135.3,286046999.7,N
1532475155.1,286047002.7,Y
1532475175.9,286047002.8,P
1532475195.7,286046999.7,N
1532475215.5,286047000.6,N
1532475235.4,286047000.4,N
1532475255.2,286047001.2,N
1532475275.1,286047000.8,N
1532475276.0,286047000.8,N
1532475295.8,286047002.8,Y
1532475315.6,286046998.6,P
1532475365.5,286047000.8,E
1532475375.4,286047001.2,N
1532475395.3,286046998.1,P
1532475415.1,286047001.0,N
1532475435.8,286047000.8,N
1532475455.7,286047000.8,N
1532475475.5,286047001.2,N
1532475495.4,286047001.2,N
1532475515.2,286047000.7,N
1532475535.0,286047001.2,N
1532475535.9,286047001.2,N
1532475555.8,286046998.2,N
1532475575.6,286046998.7,N
1532475595.4,286046998.2,N
1532475615.3,286046998.2,N
1532475635.1,286046998.2,N
1532475655.9,286046998.6,N
1532475675.7,286047001.1,N
1532475695.5,286047000.7,N
1532475715.4,286046998.6,N
1532475735.2,286047001.2,N
1532475755.1,286046998.1,N
1532475756.0,286046998.1,N
1532475775.8,286047000.8,N
1532475795.6,286047000.8,N
1532475815.5,286047000.6,N
1532475835.3,286046998.1,N
1532475855.1,286046999.7,N
1532475875.9,286047000.7,N
1532475895.7,286047000.3,N
1532475915.6,286046998.6,N
1532475935.4,286046998.9,N
1532475955.2,286046998.7,N
1532475975.1,286046998.7,N
1532475976.0,286046998.7,N
1532475995.8,286046998.5,N
1532476015.6,286046998.8,N
1532476035.5,286046998.3,N
1532476055.3,286046998.5,N
1532476075.2,286046999.3,N
1532476095.9,286046999.2,N
1532476115.7,286047001.1,N
1532476135.6,286047001.1,N
1532476155.4,286046998.2,N
1532476175.2,286046998.5,N
1532476195.1,286046998.4,N
1532476196.0,286046998.4,N
1532476215.8,286046998.6,N
1532476235.7,286046998.2,N
1532476255.5,286047000.2,N
1532476275.3,286046999.9,N
1532476295.2,286046998.2,N
1532476315.0,286047000.9,N
1532476315.9,286047000.9,N
1532476335.8,286047001.1,N
1532476355.6,286047001.2,N
1532476375.4,286046998.3,N
1532476395.3,286046999.1,N
1532476415.1,286046998.9,N
1532476435.8,286046998.9,N
1532476455.7,286046999.3,N
1532476475.5,286046999.5,N
1532476495.4,286046997.0,N
1532476515.2,286046996.9,N
1532476535.0,286046996.9,N
1532476535.9,286046996.9,N
1532476555.8,286046996.9,N
1532476575.6,286046996.8,N
1532476595.4,286046997.3,N
1532476615.3,286046997.2,N
1532476635.1,286046997.4,N
1532476655.9,286046997.0,N
1532476675.7,286046997.0,N
1532476695.5,286046997.3,N
1532476715.4,286046999.6,N
1532476735.2,286047001.2,N
1532476755.1,286046998.8,N
1532476756.0,286046998.8,N
1532476775.8,286046998.6,N
1532476795.6,286046999.4,N
